This is the latest recevied weather packets stored in our database for station/object DC4AT. If no packets are shown the sender has not sent any weather packets the latest 10 day(s).
| Time | Temp. | Humidity | Pressure | Rain* | Wind** | Luminosity | Snow |
|---|---|---|---|---|---|---|---|
| 1777805020 | 18.33° C | 60% | 1013.2 hPa | 0 mm | - | 97 W/m² | - |
| 1777804420 | 18.89° C | 51% | 1013.1 hPa | 0 mm | - | 102 W/m² | - |
| 1777803820 | 19.44° C | 46% | 1013.3 hPa | 0 mm | - | 141 W/m² | - |
| 1777803220 | 19.44° C | 46% | 1013.4 hPa | 0 mm | - | 183 W/m² | - |
| 1777802620 | 20° C | 45% | 1013.4 hPa | 0 mm | - | 206 W/m² | - |
| 1777802020 | 20.56° C | 46% | 1013.4 hPa | 0 mm | - | 278 W/m² | - |
| 1777801420 | 20.56° C | 45% | 1013.3 hPa | 0 mm | - | 272 W/m² | - |
| 1777800820 | 20.56° C | 47% | 1013.4 hPa | 0 mm | - | 308 W/m² | - |
| 1777800220 | 20.56° C | 49% | 1013.4 hPa | 0 mm | - | 338 W/m² | - |
| 1777799620 | 20.56° C | 50% | 1013.4 hPa | 0 mm | - | 246 W/m² | - |
| 1777799020 | 20.56° C | 53% | 1013.4 hPa | 0 mm | - | 244 W/m² | - |
| 1777798420 | 20.56° C | 54% | 1013.4 hPa | 0 mm | - | 244 W/m² | - |
| 1777797820 | 20.56° C | 54% | 1013.3 hPa | 0 mm | - | 394 W/m² | - |
| 1777797220 | 20° C | 58% | 1013.3 hPa | 0 mm | - | 334 W/m² | - |
| 1777796620 | 19.44° C | 57% | 1013.4 hPa | 0 mm | - | 385 W/m² | - |
| 1777796020 | 18.89° C | 58% | 1013.3 hPa | 0 mm | - | 429 W/m² | - |
| 1777795420 | 18.33° C | 57% | 1013.2 hPa | 0 mm | - | 381 W/m² | - |
| 1777794820 | 18.33° C | 57% | 1013.3 hPa | 0 mm | - | 230 W/m² | - |
| 1777794220 | 18.33° C | 55% | 1013.5 hPa | 0 mm | - | 183 W/m² | - |
| 1777793620 | 17.78° C | 56% | 1013.2 hPa | 0 mm | - | 246 W/m² | - |
| 1777793020 | 16.67° C | 60% | 1013.3 hPa | 0 mm | - | 406 W/m² | - |
| 1777792420 | 16.11° C | 68% | 1013.3 hPa | 0 mm | - | 378 W/m² | - |
| 1777791820 | 15° C | 69% | 1013.4 hPa | 0 mm | - | 341 W/m² | - |
| 1777791220 | 14.44° C | 66% | 1013.2 hPa | 0 mm | - | 260 W/m² | - |
| 1777790620 | 14.44° C | 67% | 1013.3 hPa | 0 mm | - | 183 W/m² | - |
* Rain latest hour (hover to see other rain measurements)
** Current wind speed in m/s (hover to see current wind gust speed)